[[{"header":{"parameterUnit":"m.s-1","parameterCategory":1,"la1":30.2991,"la2":30.254,"lo1":-89.0895,"lo2":-89.0444,"dy":0.0017,"dx":0.0017,"nx":28,"ny":28,"refTime":"2026-02-13T03:00:00:Z","depth":0,"parameterNumber":2,"parameterNumberName":"U-component_of_WINDS"},"data":[0,0,0,0,0,0,0,0,0,0,0,0,0,0,0,0,0,0,0,0,0,0,0,0,0,0,0,0,0,0,0,0,0,0,0,0,0,0,0,0,0,0,0,0,0,0,0,0,0,0,0,0,0,0,0,0,0,0,-0.4213,-0.4212,0,-0.4085,-0.4083,-0.4082,-0.3991,-0.399,-0.3989,-0.3989,-0.3855,-0.3852,-0.385,0,0,0,0,0,0,0,0,0,0,0,0,0,-0.4379,-0.4376,-0.4213,-0.4212,-0.421,-0.4085,-0.4083,-0.4081,-0.3991,-0.399,-0.3989,-0.3988,-0.3856,-0.3853,-0.3849,0,0,0,0,0,0,0,0,0,0,0,0,0,-0.4284,-0.4375,-0.4213,-0.415,-0.4143,-0.4085,-0.4083,-0.4081,-0.3991,-0.399,-0.3989,-0.3988,-0.3857,-0.3853,-0.3849,-0.3844,0,0,-0.3836,-0.3834,0,0,0,0,0,0,0,0,-0.429,-0.4278,-0.4161,-0.4154,-0.4146,-0.4053,-0.4092,-0.4001,-0.3991,-0.4049,-0.3989,-0.3987,-0.3922,-0.3912,-0.389,-0.3837,-0.3832,-0.3835,-0.3833,-0.3831,-0.383,0,0,0,0,0,0,0,-0.4296,-0.4283,-0.4162,-0.4159,-0.415,-0.4127,-0.4113,-0.4075,-0.3993,-0.4044,-0.4037,-0.4023,-0.3917,-0.3895,-0.3886,-0.383,-0.3835,-0.3832,-0.3829,-0.3827,-0.3767,-0.3768,0,0,0,0,0,0,-0.4313,-0.4289,-0.4166,-0.4158,-0.4217,-0.4125,-0.4109,-0.4084,-0.3993,-0.3978,-0.4024,-0.4019,-0.3903,-0.3892,-0.3881,-0.387,-0.3831,-0.3827,-0.3824,-0.3766,-0.3767,-0.3768,0,0,0,0,0,0,-0.4317,-0.4303,-0.4171,-0.4222,-0.4203,-0.4123,-0.4096,-0.4082,-0.4059,-0.3978,-0.3963,-0.4016,-0.3901,-0.3887,-0.3854,-0.3864,-0.3825,-0.3821,-0.3765,-0.3766,-0.3768,-0.3847,0,0,0,0,0,0,-0.4322,-0.4305,-0.4302,-0.4223,-0.4201,-0.4147,-0.4097,-0.408,-0.4052,-0.4044,-0.3966,-0.3952,-0.3899,-0.3861,-0.385,-0.3857,-0.3817,-0.3764,-0.3766,-0.3767,-0.3844,-0.3851,-0.3858,0,0,0,0,0,-0.4328,-0.4329,-0.4303,-0.4288,-0.4196,-0.4148,-0.4135,-0.4075,-0.4053,-0.405,-0.3998,-0.3955,-0.3865,-0.3858,-0.3845,-0.3852,-0.3763,-0.3765,-0.3767,-0.384,-0.385,-0.3858,0,0,0,0,0,0,-0.4412,-0.4318,-0.4287,-0.4262,-0.4214,-0.4133,-0.4127,-0.4087,-0.4043,-0.4038,-0.3964,-0.3947,-0.3922,-0.3883,-0.3877,-0.3842,-0.3808,-0.3808,-0.3869,-0.3877,-0.3884,-0.3894,-0.3814,0,0,0,0,0,-0.4427,-0.4396,-0.4315,-0.4301,-0.4279,-0.4207,-0.4184,-0.4142,-0.4088,-0.4067,-0.4012,-0.3962,-0.3922,-0.3897,-0.3856,-0.3837,-0.3819,-0.3835,-0.3843,-0.3849,-0.385,-0.3838,-0.3844,-0.3776,-0.3776,-0.3776,0,0,-0.4459,-0.4404,-0.4388,-0.4317,-0.4274,-0.4244,-0.419,-0.416,-0.4136,-0.4062,-0.4027,-0.3986,-0.3924,-0.3899,-0.3885,-0.3866,-0.3865,-0.3852,-0.3858,-0.3855,-0.3841,-0.3847,-0.3853,-0.3777,-0.3777,-0.3777,0,0,-0.4501,-0.4456,-0.444,-0.4399,-0.4335,-0.4288,-0.4284,-0.4209,-0.4179,-0.4143,-0.4087,-0.4058,-0.399,-0.3949,-0.392,-0.3947,-0.3906,-0.3936,-0.3974,-0.3964,-0.3969,-0.3974,-0.3984,-0.3989,-0.3937,-0.3937,-0.3937,0,-0.4549,-0.4501,-0.4437,-0.441,-0.438,-0.4312,-0.4295,-0.4258,-0.4184,-0.4165,-0.4145,-0.406,-0.4014,-0.3978,-0.3985,-0.3963,-0.3957,-0.3945,-0.3974,-0.3977,-0.3981,-0.399,-0.3994,-0.3941,-0.3941,-0.394,-0.394,0,-0.4562,-0.453,-0.4524,-0.4456,-0.4426,-0.4404,-0.4337,-0.4313,-0.4274,-0.4229,-0.4194,-0.4136,-0.4082,-0.407,-0.4031,-0.4029,-0.402,-0.3988,-0.3952,-0.3992,-0.4,-0.4003,-0.3947,-0.3945,-0.3944,-0.3943,0,0,-0.4653,-0.4551,-0.455,-0.4519,-0.4444,-0.4417,-0.4393,-0.4341,-0.4323,-0.4274,-0.4252,-0.4197,-0.4168,-0.4134,-0.4089,-0.408,-0.4107,-0.4049,-0.4046,-0.4063,-0.4102,-0.4128,-0.4133,-0.4079,-0.4079,-0.408,-0.4108,0,-0.4685,-0.4638,-0.458,-0.4552,-0.4522,-0.4457,-0.4436,-0.4388,-0.4345,-0.4312,-0.4264,-0.4227,-0.419,-0.417,-0.4158,-0.4107,-0.4114,-0.4103,-0.4058,-0.4057,-0.4076,-0.4137,-0.4163,-0.4192,-0.411,-0.4111,-0.4111,0,-0.4715,-0.4672,-0.4642,-0.4571,-0.4556,-0.4537,-0.4486,-0.4456,-0.44,-0.4369,-0.4333,-0.4285,-0.4256,-0.4224,-0.4183,-0.4177,-0.4155,-0.4127,-0.4126,-0.412,-0.4087,-0.4133,-0.42,-0.4205,-0.4115,-0.4115,-0.4114,0,-0.4786,-0.4719,-0.4693,-0.4668,-0.4584,-0.4573,-0.4538,-0.4481,-0.4454,-0.4408,-0.439,-0.4342,-0.4316,-0.4279,-0.422,-0.4203,-0.4186,-0.4149,-0.416,-0.4161,-0.4159,-0.416,-0.4225,-0.4144,-0.4144,-0.4144,-0.4144,0,-0.4828,-0.4812,-0.4724,-0.4708,-0.4689,-0.4622,-0.4605,-0.4563,-0.4513,-0.4488,-0.4428,-0.4405,-0.4328,-0.4296,-0.4249,-0.4223,-0.4211,-0.4186,-0.4173,-0.4191,-0.4195,-0.4176,-0.4173,-0.4145,-0.4145,-0.4144,-0.4144,0,-0.4904,-0.4844,-0.4811,-0.4735,-0.4715,-0.4705,-0.4639,-0.4621,-0.4575,-0.4544,-0.4532,-0.446,-0.4419,-0.4357,-0.4297,-0.4265,-0.4247,-0.4226,-0.4267,-0.4259,-0.4274,-0.4274,-0.4329,-0.4334,-0.425,-0.4251,-0.4252,0,-0.4935,-0.4922,-0.4844,-0.4824,-0.4791,-0.4757,-0.473,-0.4664,-0.4638,-0.4574,-0.4564,-0.4519,-0.4479,-0.4418,-0.4359,-0.4314,-0.4292,-0.4314,-0.4285,-0.4304,-0.4293,-0.4295,-0.4294,-0.4322,-0.4323,-0.4324,-0.4325,0,-0.4997,-0.4968,-0.4931,-0.4885,-0.4854,-0.4813,-0.477,-0.4756,-0.468,-0.4654,-0.4613,-0.4582,-0.4522,-0.4478,-0.4425,-0.4387,-0.4344,-0.4335,-0.4335,-0.4354,-0.4378,-0.4366,-0.4287,-0.4334,-0.4333,-0.4332,-0.4332,-0.4332,-0.5051,-0.5037,-0.4981,-0.4942,-0.4903,-0.4864,-0.4844,-0.4796,-0.476,-0.4707,-0.467,-0.4631,-0.4575,-0.4499,-0.4464,-0.4433,-0.4413,-0.4414,-0.4414,-0.4415,-0.4422,-0.4383,-0.4422,-0.4422,-0.4422,-0.4421,-0.4421,0,-0.5111,-0.5072,-0.5037,-0.4979,-0.4949,-0.4911,-0.4861,-0.4838,-0.4805,-0.4757,-0.472,-0.4673,-0.4631,-0.457,-0.4522,-0.4509,-0.4488,-0.4499,-0.45,-0.4492,-0.4441,-0.4446,-0.4517,-0.4517,-0.4517,-0.4517,-0.4517,-0.4517,-0.5139,-0.5113,-0.5078,-0.5032,-0.4992,-0.4955,-0.493,-0.4894,-0.4855,-0.4806,-0.4771,-0.4731,-0.4678,-0.4627,-0.4586,-0.4569,-0.4555,-0.4573,-0.455,-0.4504,-0.4495,-0.4487,-0.4491,-0.457,-0.457,-0.4603,-0.4603,-0.4604]},{"header":{"parameterUnit":"m.s-1","parameterCategory":1,"la1":30.2991,"la2":30.254,"lo1":-89.0895,"lo2":-89.0444,"dy":0.0017,"dx":0.0017,"nx":28,"ny":28,"refTime":"2026-02-13T03:00:00:Z","depth":0,"parameterNumber":3,"parameterNumberName":"V-component_of_WINDS"},"data":[0,0,0,0,0,0,0,0,0,0,0,0,0,0,0,0,0,0,0,0,0,0,0,0,0,0,0,0,0,0,0,0,0,0,0,0,0,0,0,0,0,0,0,0,0,0,0,0,0,0,0,0,0,0,0,0,0,0,1.1103,1.1103,0,1.1064,1.1063,1.1063,1.1046,1.1046,1.1046,1.1046,1.1002,1.1001,1.0999,0,0,0,0,0,0,0,0,0,0,0,0,0,1.1161,1.116,1.1103,1.1103,1.1102,1.1064,1.1063,1.1063,1.1046,1.1046,1.1046,1.1046,1.1002,1.1001,1.0999,0,0,0,0,0,0,0,0,0,0,0,0,0,1.113,1.116,1.1103,1.1089,1.1088,1.1064,1.1063,1.1063,1.1046,1.1046,1.1046,1.1046,1.1003,1.1001,1.0999,1.0985,0,0,1.0993,1.0993,0,0,0,0,0,0,0,0,1.1132,1.1128,1.1092,1.109,1.1088,1.106,1.1068,1.1037,1.1046,1.1062,1.1046,1.1046,1.1021,1.1017,1.101,1.0983,1.0981,1.0993,1.0992,1.0991,1.0991,0,0,0,0,0,0,0,1.1134,1.113,1.1088,1.1091,1.1089,1.1084,1.108,1.1062,1.1041,1.106,1.1059,1.1055,1.102,1.1012,1.1009,1.0981,1.0993,1.0992,1.099,1.099,1.0943,1.0943,0,0,0,0,0,0,1.1139,1.1132,1.1089,1.1086,1.1111,1.1083,1.1078,1.1069,1.1041,1.1037,1.1055,1.1054,1.1015,1.1011,1.1007,1.099,1.0991,1.0989,1.0988,1.0943,1.0943,1.0943,0,0,0,0,0,0,1.1141,1.1136,1.109,1.1109,1.1103,1.1082,1.1072,1.1068,1.106,1.1037,1.1033,1.105,1.1015,1.101,1.0992,1.0988,1.0989,1.0987,1.0943,1.0943,1.0943,1.0956,0,0,0,0,0,0,1.1142,1.1136,1.1131,1.1109,1.1102,1.1076,1.1071,1.1067,1.1057,1.1056,1.1032,1.1028,1.1014,1.0994,1.099,1.0986,1.0985,1.0943,1.0943,1.0943,1.0956,1.0956,1.0957,0,0,0,0,0,1.1145,1.1135,1.1131,1.1126,1.1095,1.1076,1.1072,1.1058,1.1057,1.1051,1.1037,1.1028,1.099,1.0993,1.0987,1.0983,1.0943,1.0943,1.0943,1.0955,1.0956,1.0957,0,0,0,0,0,0,1.1155,1.1132,1.1127,1.111,1.1096,1.1073,1.1066,1.1059,1.1043,1.1042,1.1025,1.1019,1.1003,1.0991,1.0995,1.0969,1.0966,1.0965,1.0977,1.0978,1.0978,1.0981,1.0984,0,0,0,0,0,1.1156,1.1144,1.1123,1.1111,1.1104,1.1086,1.1077,1.1068,1.1052,1.1045,1.1029,1.1013,1.0997,1.0987,1.0971,1.0954,1.0949,1.0949,1.0949,1.095,1.0948,1.094,1.094,1.0942,1.0942,1.0942,0,0,1.1157,1.1143,1.1136,1.1113,1.11,1.1087,1.1081,1.1067,1.1057,1.1042,1.1025,1.1013,1.0993,1.0977,1.0968,1.0966,1.0947,1.0949,1.095,1.0948,1.094,1.094,1.0939,1.0942,1.0942,1.0942,0,0,1.1152,1.114,1.1129,1.1117,1.1099,1.1088,1.1086,1.1065,1.1057,1.104,1.1029,1.1017,1.099,1.0977,1.0966,1.096,1.0951,1.0955,1.0957,1.0949,1.0949,1.0949,1.0947,1.0946,1.0954,1.0954,1.0954,0,1.1155,1.1136,1.1123,1.1111,1.1101,1.109,1.1078,1.1067,1.1044,1.1038,1.1036,1.1004,1.0989,1.097,1.0969,1.0961,1.0957,1.0957,1.095,1.095,1.095,1.0948,1.0947,1.0954,1.0954,1.0954,1.0954,0,1.1141,1.1128,1.1121,1.1102,1.1091,1.1079,1.1065,1.1056,1.1048,1.1037,1.102,1.1003,1.0985,1.0979,1.0971,1.0959,1.0959,1.0954,1.095,1.095,1.0948,1.0947,1.0955,1.0955,1.0955,1.0955,0,0,1.114,1.1116,1.1113,1.1105,1.1086,1.1075,1.1063,1.1046,1.1039,1.1025,1.1014,1.0993,1.0989,1.0978,1.0968,1.0961,1.0958,1.0957,1.0956,1.0958,1.0945,1.0949,1.0948,1.0953,1.0952,1.0952,1.0947,0,1.1132,1.1111,1.1101,1.1084,1.1072,1.1062,1.1052,1.1039,1.1029,1.1017,1.1005,1.0991,1.0987,1.098,1.0973,1.096,1.0955,1.096,1.0942,1.0942,1.0947,1.0947,1.095,1.0945,1.0946,1.0946,1.0946,0,1.112,1.1108,1.109,1.1075,1.1069,1.106,1.1045,1.1034,1.1019,1.1012,1.1001,1.0992,1.0979,1.0978,1.0959,1.0963,1.0955,1.0948,1.0947,1.0945,1.0943,1.0944,1.0944,1.0943,1.0944,1.0944,1.0944,0,1.1122,1.1101,1.1088,1.1081,1.1062,1.1056,1.1047,1.1033,1.1024,1.1011,1.1005,1.099,1.0982,1.097,1.0957,1.0957,1.0941,1.0938,1.0934,1.0935,1.093,1.0931,1.0929,1.0926,1.0926,1.0926,1.0926,0,1.1114,1.1104,1.1089,1.1081,1.107,1.1058,1.1047,1.1037,1.1025,1.1015,1.1005,1.0996,1.0979,1.0968,1.0958,1.0945,1.0941,1.0935,1.0932,1.0936,1.0936,1.093,1.093,1.0926,1.0926,1.0926,1.0926,0,1.1113,1.1103,1.1088,1.1073,1.1068,1.1061,1.1047,1.1039,1.1029,1.1017,1.1013,1.0998,1.0984,1.0971,1.0952,1.0945,1.0932,1.0929,1.0938,1.0936,1.0934,1.0934,1.0927,1.0926,1.0924,1.0924,1.0924,0,1.1109,1.1101,1.1085,1.1079,1.1071,1.106,1.1053,1.1041,1.1033,1.1017,1.1011,1.0997,1.0985,1.0964,1.0951,1.0937,1.0933,1.0931,1.093,1.0935,1.0933,1.0934,1.0933,1.0931,1.0932,1.0932,1.0932,0,1.1103,1.1099,1.1088,1.1076,1.1068,1.1057,1.1046,1.1041,1.1028,1.1019,1.1007,1.0998,1.098,1.0966,1.0951,1.0942,1.0934,1.0933,1.0931,1.0934,1.094,1.0937,1.0939,1.0932,1.0932,1.0932,1.0932,1.0932,1.11,1.1093,1.1082,1.1071,1.1062,1.1053,1.1046,1.1036,1.1026,1.1011,1.1005,1.0992,1.0979,1.0959,1.095,1.0939,1.0937,1.0935,1.0934,1.0934,1.0935,1.0942,1.0936,1.0936,1.0936,1.0936,1.0936,0,1.1093,1.1086,1.1076,1.1063,1.1055,1.1051,1.1039,1.1032,1.1022,1.1011,1.1001,1.0986,1.0974,1.0961,1.0947,1.0942,1.0938,1.0938,1.0938,1.0937,1.0937,1.094,1.0942,1.0942,1.0942,1.0942,1.0942,1.0942,1.1089,1.1078,1.1073,1.1058,1.105,1.1039,1.1033,1.1025,1.1016,1.1002,1.0992,1.0984,1.0973,1.0959,1.0947,1.0944,1.0939,1.0941,1.0936,1.0937,1.0936,1.0936,1.0939,1.094,1.094,1.0937,1.0937,1.0937]}]]